| time (UTC) | temp C | wind direction | speed KPH | gust KPH | rain 1hr cm | rain 24hr cm | rain mn cm | humidity % | barometer mb |
| 20260506231535 | 6 | 323 | 3.2 | 14.5 | 0.00 | 1.37 | 1.32 | 96 | 1008.1 |
| 20260506230039 | 6 | 16 | 4.8 | 16.1 | 0.00 | 1.37 | 1.32 | 96 | 1007.9 |
| 20260506224542 | 6 | 44 | 4.8 | 14.5 | 0.00 | 1.40 | 1.32 | 96 | 1007.4 |
| 20260506223041 | 6 | 309 | 4.8 | 19.3 | 0.00 | 1.40 | 1.32 | 96 | 1007.3 |
| 20260506221538 | 6 | 16 | 4.8 | 22.5 | 0.03 | 1.40 | 1.32 | 96 | 1007.1 |
| 20260506220041 | 6 | 30 | 6.4 | 16.1 | 0.03 | 1.40 | 1.32 | 97 | 1007.3 |
| 20260506214543 | 7 | 338 | 6.4 | 17.7 | 0.03 | 1.40 | 1.32 | 97 | 1007.2 |
| 20260506213042 | 7 | 341 | 4.8 | 12.9 | 0.03 | 1.40 | 1.32 | 97 | 1006.9 |
| 20260506211540 | 7 | 31 | 6.4 | 24.1 | 0.00 | 1.37 | 1.32 | 96 | 1006.5 |
| 20260506210037 | 7 | 312 | 6.4 | 19.3 | 0.03 | 1.37 | 1.32 | 96 | 1006.2 |
| 20260506204542 | 7 | 16 | 6.4 | 14.5 | 0.05 | 1.47 | 1.32 | 97 | 1005.8 |
| 20260506203044 | 7 | 44 | 4.8 | 14.5 | 0.05 | 1.47 | 1.32 | 97 | 1005.4 |
| 20260506201539 | 7 | 23 | 4.8 | 14.5 | 0.08 | 1.47 | 1.32 | 97 | 1005.6 |
| 20260506200038 | 7 | 341 | 11.3 | 24.1 | 0.05 | 1.45 | 1.30 | 96 | 1005.4 |
| 20260506194542 | 8 | 9 | 4.8 | 16.1 | 0.05 | 1.42 | 1.27 | 96 | 1005.5 |
| 20260506193043 | 8 | 311 | 6.4 | 25.7 | 0.05 | 1.42 | 1.27 | 96 | 1005.1 |
| 20260506191551 | 10 | 336 | 6.4 | 16.1 | 0.03 | 1.40 | 1.24 | 96 | 1004.8 |
| 20260506190042 | 11 | 332 | 4.8 | 19.3 | 0.03 | 1.40 | 1.24 | 96 | 1004.4 |
| 20260506184539 | 13 | 325 | 3.2 | 11.3 | 0.00 | 1.37 | 1.22 | 97 | 1004.4 |
| 20260506183039 | 13 | 221 | 1.6 | 12.9 | 0.00 | 1.37 | 1.22 | 97 | 1004.1 |
| 20260506181544 | 13 | 165 | 1.6 | 11.3 | 0.00 | 1.37 | 1.22 | 97 | 1004.2 |
| 20260506180039 | 13 | 221 | 1.6 | 11.3 | 0.00 | 1.37 | 1.22 | 97 | 1004.2 |
| 20260506174540 | 13 | 178 | 1.6 | 6.4 | 0.00 | 1.37 | 1.22 | 97 | 1004.2 |
| 20260506173052 | 13 | 185 | 1.6 | 9.7 | 0.00 | 1.37 | 1.22 | 97 | 1004.1 |
| 20260506171539 | 13 | 205 | 3.2 | 11.3 | 0.03 | 1.37 | 1.22 | 97 | 1004.3 |
| 20260506170036 | 13 | 0 | 1.6 | 6.4 | 0.03 | 1.37 | 1.22 | 97 | 1004.6 |
| 20260506164536 | 12 | 238 | 1.6 | 6.4 | 0.05 | 1.37 | 1.22 | 97 | 1004.5 |
| 20260506163041 | 12 | 171 | 3.2 | 11.3 | 0.13 | 1.37 | 1.22 | 97 | 1004.5 |
| 20260506161542 | 12 | 196 | 1.6 | 6.4 | 0.15 | 1.32 | 1.19 | 97 | 1004.6 |
| 20260506160040 | 12 | 187 | 1.6 | 4.8 | 0.20 | 1.32 | 1.19 | 97 | 1004.6 |
| 20260506154540 | 12 | 178 | 1.6 | 12.9 | 0.23 | 1.32 | 1.17 | 97 | 1004.8 |
| 20260506153035 | 12 | 187 | 3.2 | 12.9 | 0.18 | 1.22 | 1.07 | 97 | 1004.7 |
| 20260506151545 | 12 | 190 | 3.2 | 8.0 | 0.18 | 1.19 | 1.04 | 97 | 1004.9 |
| 20260506150038 | 12 | 168 | 3.2 | 16.1 | 0.18 | 1.14 | 0.99 | 97 | 1004.7 |
| 20260506144558 | 12 | 178 | 1.6 | 19.3 | 0.15 | 1.07 | 0.91 | 97 | 1004.6 |
| 20260506143038 | 12 | 178 | 3.2 | 14.5 | 0.20 | 1.04 | 0.89 | 97 | 1004.6 |
| 20260506141538 | 11 | 178 | 1.6 | 11.3 | 0.28 | 1.02 | 0.86 | 97 | 1004.7 |
| 20260506140042 | 11 | 51 | 0.0 | 8.0 | 0.33 | 0.97 | 0.81 | 97 | 1004.9 |
| 20260506134542 | 11 | 232 | 0.0 | 6.4 | 0.36 | 0.91 | 0.76 | 96 | 1005.3 |
| 20260506133043 | 11 | 187 | 0.0 | 4.8 | 0.36 | 0.84 | 0.69 | 96 | 1005.7 |
| 20260506131544 | 11 | 250 | 1.6 | 12.9 | 0.25 | 0.74 | 0.58 | 96 | 1006.0 |
| 20260506130044 | 11 | 178 | 1.6 | 9.7 | 0.18 | 0.64 | 0.48 | 96 | 1005.9 |
| 20260506124540 | 11 | 201 | 1.6 | 6.4 | 0.13 | 0.64 | 0.41 | 96 | 1005.4 |
| 20260506123040 | 11 | 205 | 1.6 | 6.4 | 0.05 | 0.56 | 0.33 | 96 | 1005.6 |
| 20260506121538 | 11 | 239 | 1.6 | 11.3 | 0.08 | 0.56 | 0.33 | 96 | 1005.7 |
| 20260506120038 | 11 | 137 | 1.6 | 6.4 | 0.08 | 0.53 | 0.30 | 96 | 1005.6 |
| 20260506114542 | 11 | 196 | 1.6 | 6.4 | 0.10 | 0.51 | 0.28 | 96 | 1005.6 |
| 20260506113041 | 11 | 236 | 1.6 | 12.9 | 0.13 | 0.48 | 0.25 | 96 | 1005.6 |
| 20260506111538 | 11 | 227 | 1.6 | 4.8 | 0.18 | 0.48 | 0.25 | 95 | 1006.0 |
| 20260506110038 | 11 | 232 | 1.6 | 4.8 | 0.18 | 0.46 | 0.23 | 95 | 1006.0 |
| 20260506104535 | 11 | 178 | 1.6 | 8.0 | 0.15 | 0.41 | 0.18 | 95 | 1006.0 |
| 20260506103042 | 11 | 221 | 1.6 | 4.8 | 0.13 | 0.36 | 0.13 | 95 | 1005.8 |
| 20260506101539 | 11 | 282 | 1.6 | 3.2 | 0.08 | 0.30 | 0.08 | 95 | 1005.6 |
| 20260506100040 | 10 | 196 | 1.6 | 3.2 | 0.05 | 0.28 | 0.05 | 95 | 1005.4 |
| 20260506094535 | 10 | 221 | 0.0 | 3.2 | 0.03 | 0.25 | 0.03 | 95 | 1005.3 |
| 20260506093040 | 10 | 232 | 0.0 | 3.2 | 0.00 | 0.23 | 0.00 | 95 | 1005.4 |
| 20260506091543 | 10 | 239 | 0.0 | 3.2 | 0.00 | 0.23 | 0.00 | 94 | 1005.5 |
| 20260506090041 | 10 | 165 | 1.6 | 6.4 | 0.00 | 0.23 | 0.00 | 94 | 1005.6 |
| 20260506084539 | 10 | 142 | 1.6 | 6.4 | 0.00 | 0.23 | 0.00 | 94 | 1005.8 |
| 20260506083038 | 10 | 20 | 1.6 | 6.4 | 0.00 | 0.23 | 0.00 | 95 | 1005.4 |
| 20260506081544 | 10 | 93 | 1.6 | 4.8 | 0.00 | 0.23 | 0.00 | 94 | 1005.2 |
| 20260506073037 | 10 | 42 | 3.2 | 4.8 | 0.00 | 0.23 | 0.00 | 94 | 1005.7 |
| 20260506071536 | 10 | 51 | 3.2 | 8.0 | 0.00 | 0.23 | 0.00 | 93 | 1005.7 |
| 20260506061539 | 10 | 51 | 1.6 | 4.8 | 0.00 | 0.23 | 0.00 | 93 | 1006.6 |
| 20260506044546 | 10 | 68 | 1.6 | 6.4 | 0.00 | 0.23 | 0.00 | 91 | 1007.6 |
| 20260506043036 | 10 | 110 | 1.6 | 6.4 | 0.00 | 0.23 | 0.00 | 91 | 1007.6 |
| 20260506041551 | 10 | 30 | 1.6 | 6.4 | 0.00 | 0.23 | 0.00 | 91 | 1008.0 |
| 20260506040041 | 10 | 67 | 3.2 | 9.7 | 0.00 | 0.23 | 0.00 | 91 | 1008.0 |
| 20260506034544 | 11 | 137 | 3.2 | 9.7 | 0.00 | 0.23 | 0.23 | 90 | 1008.0 |
| 20260506033034 | 11 | 50 | 1.6 | 19.3 | 0.00 | 0.23 | 0.23 | 89 | 1008.1 |
| 20260506031541 | 11 | 68 | 3.2 | 17.7 | 0.00 | 0.23 | 0.23 | 90 | 1007.8 |
| 20260506030041 | 12 | 53 | 8.0 | 17.7 | 0.00 | 0.23 | 0.23 | 91 | 1007.9 |
| 20260506024545 | 13 | 34 | 6.4 | 16.1 | 0.00 | 0.23 | 0.23 | 92 | 1007.8 |
| 20260506023038 | 13 | 24 | 4.8 | 11.3 | 0.00 | 0.23 | 0.23 | 92 | 1007.5 |
| 20260506021546 | 14 | 26 | 3.2 | 6.4 | 0.03 | 0.23 | 0.23 | 91 | 1007.5 |
| 20260506020033 | 14 | 44 | 4.8 | 9.7 | 0.03 | 0.23 | 0.23 | 91 | 1007.5 |
| 20260506014541 | 15 | 47 | 4.8 | 9.7 | 0.03 | 0.23 | 0.23 | 90 | 1007.0 |
| 20260506013045 | 15 | 41 | 1.6 | 6.4 | 0.00 | 0.20 | 0.20 | 88 | 1007.3 |
| 20260506011558 | 15 | 0 | 1.6 | 3.2 | 0.00 | 0.20 | 0.20 | 88 | 1007.1 |
| 20260506010034 | 15 | 212 | 0.0 | 3.2 | 0.00 | 0.20 | 0.20 | 89 | 1006.8 |
| 20260506004545 | 14 | 200 | 0.0 | 3.2 | 0.00 | 0.20 | 0.20 | 89 | 1006.6 |
| 20260506003042 | 14 | 212 | 0.0 | 3.2 | 0.00 | 0.20 | 0.20 | 90 | 1006.7 |
| 20260506001543 | 14 | 196 | 0.0 | 3.2 | 0.00 | 0.20 | 0.20 | 90 | 1006.4 |
| 20260506000046 | 14 | 0 | 0.0 | 3.2 | 0.00 | 0.20 | 0.20 | 91 | 1006.4 |
| 20260505234538 | 15 | 196 | 1.6 | 3.2 | 0.00 | 0.20 | 0.20 | 91 | 1006.2 |
| 20260505233041 | 15 | 178 | 0.0 | 1.6 | 0.03 | 0.20 | 0.20 | 92 | 1006.0 |